Starlink 30138

operational
NORAD ID: 57605 Int'l Des: 2023-119 Owner: SPXS Country: US Constellation: starlink
LEOCIRCULAR

Starlink 30138について

説明を読み込み中...

リアルタイム位置

3D地球を読み込み中...

次回通過

高度履歴

Altitude vs Time

uPlot chart will show altitude changes over time

軌道要素

1 57605U 23119D 25352.18442722 .00000118 00000-0 23839-4 0 9995
2 57605 43.0030 164.6397 0001080 266.4022 93.6697 15.02518153130827
Epoch: Dec 18, 2025 • Age: 13 hours

現在のステータス

高度 562.9 km
速度 7.59 km/s
衛星直下点 42.31°N, 112.99°W
打ち上げ日 Aug 11, 2023
運用期間 2.3 years
タイプ internet

技術仕様

分類 Payload
質量 730.00 kg
乾燥質量 700.00 kg
総質量 730.00 kg
長さ 0.30 m
直径 4.10 m
スパン 29.00 m
形状 Box + pan
製造者 SPXS
バスタイプ Starlink V2M
フェーズステータス In Orbit
所有者/国 SPXS/US

大規模コンステレーション

Loading constellations...